Wind_Speed
27 29 28 26 26 26 27 27 25 25 24 22 22 21 20 21 21 16 5 5 6 4 5 3 2 2 1 3 5 4 5 5 4 6 5 4 5 4 4 3 2 4 3 3 2 3 6 4 3 5 9 11 10 10
27 28 27 25 26 27 28 27 25 24 22 22 21 20 19 19 19 14 5 5 7 6 5 4 8 8 3 4 3 2 4 1 4 2 2 1 4 4 2 5 2 3 3 4 3 4 4 2 6 8 9 10 12 12
26 26 25 26 27 29 29 27 25 23 22 21 22 21 20 19 16 11 8 8 5 3 4 4 3 4 5 9 6 3 2 1 2 3 1 1 2 2 5 2 5 3 0 3 3 5 4 8 6 4 9 11 13 15
25 23 27 27 28 29 29 27 26 23 21 23 23 22 22 19 13 9 5 5 5 4 4 5 3 3 1 2 5 2 2 2 3 2 2 2 2 2 2 3 4 5 4 1 6 2 10 4 5 13 14 15 15 16
24 23 25 27 27 27 28 26 26 23 24 24 25 25 20 13 10 5 5 2 3 6 4 1 2 2 1 5 5 4 3 2 3 4 4 2 3 4 1 2 4 3 3 4 4 8 7 12 14 14 15 15 16 18
23 23 25 25 27 27 27 27 25 25 26 27 27 19 15 11 2 2 4 2 2 4 4 2 3 1 2 6 6 4 2 1 2 2 3 3 2 4 4 2 4 4 2 3 5 10 11 14 12 11 16 18 18 18
22 23 24 24 25 26 26 25 26 27 28 28 20 14 8 4 3 3 4 2 4 3 3 3 4 3 3 7 4 3 2 0 3 1 2 1 3 3 2 2 7 3 2 5 7 7 10 11 14 14 15 18 20 22
21 23 23 23 24 23 23 25 27 28 29 24 13 5 3 4 5 1 3 5 2 3 3 3 2 4 3 4 4 0 2 3 2 1 2 2 3 3 3 7 5 2 4 3 6 8 9 10 12 14 16 16 16 16
21 21 21 21 21 20 23 25 28 29 28 15 7 2 1 2 2 3 10 2 1 2 3 2 3 3 0 2 1 3 1 4 1 3 2 3 3 3 7 6 2 4 4 6 8 7 8 11 12 13 15 16 17 17
20 19 19 19 18 20 21 26 29 30 19 10 4 4 3 2 9 2 1 3 3 2 2 2 0 0 3 2 2 2 1 1 3 2 1 4 3 8 6 3 2 4 5 6 8 7 10 10 11 13 15 15 15 14
17 18 17 16 18 18 20 24 29 27 13 7 5 2 7 8 3 3 2 1 1 2 2 4 4 3 3 2 2 3 1 0 3 3 3 3 4 7 6 3 3 4 5 6 6 7 7 8 9 10 13 16 19 20
16 16 15 16 17 17 19 22 27 16 11 10 10 8 5 3 2 3 1 2 1 1 3 3 3 3 2 2 1 1 2 2 1 2 3 2 4 9 5 2 2 3 6 7 7 7 5 6 7 10 12 15 18 21
14 14 15 16 16 16 19 22 24 19 11 2 3 3 2 1 2 2 5 2 0 4 2 4 2 3 1 1 1 2 2 1 0 3 2 2 8 6 3 1 2 5 7 9 8 8 4 4 5 9 12 15 17 18
13 14 15 16 12 17 21 23 21 12 3 3 3 5 3 2 2 1 2 1 3 1 3 4 2 2 1 3 1 3 1 2 3 3 1 5 6 3 1 1 3 6 7 9 9 7 5 6 7 7 11 15 16 18
14 14 15 7 15 20 22 22 14 3 3 2 3 2 1 2 1 1 2 3 1 3 3 3 4 4 4 3 2 2 3 3 2 2 3 5 3 0 3 3 5 6 8 8 10 9 7 7 10 6 9 14 17 17
13 12 3 13 20 21 22 12 3 2 2 2 3 4 1 5 3 1 3 3 5 4 2 3 2 2 2 2 3 3 2 1 2 1 4 2 3 4 5 5 6 8 10 11 10 10 7 10 6 8 8 12 15 17
11 2 11 18 20 21 10 3 2 2 2 2 2 3 4 4 3 3 3 2 4 6 3 3 2 1 2 3 2 2 2 1 3 2 2 3 3 5 6 8 8 10 11 11 8 9 7 9 9 9 9 10 11 14
3 8 15 16 19 13 3 2 3 2 3 2 3 1 3 5 5 4 1 3 4 1 2 2 3 4 3 2 1 1 2 4 3 4 5 3 4 7 8 8 9 10 12 8 7 6 8 11 9 9 4 7 8 12
10 14 13 12 14 5 3 1 3 3 2 3 3 3 4 5 5 7 5 5 4 4 3 2 4 3 1 3 5 5 4 6 6 5 4 2 5 8 10 9 9 12 10 5 6 7 12 10 2 2 4 5 8 11
10 10 8 13 7 3 2 2 2 3 3 3 4 4 5 5 5 5 5 5 5 2 3 3 1 3 3 4 4 6 6 6 6 8 6 2 6 4 7 8 6 10 6 5 9 7 4 3 5 5 5 7 8 10
6 4 11 5 2 3 3 3 2 2 4 3 3 5 4 3 3 2 2 2 4 3 3 2 1 4 5 5 7 9 9 8 7 6 5 5 5 6 3 1 4 6 3 9 8 5 6 3 7 5 8 8 9 11
4 10 3 2 2 2 3 2 4 5 3 4 4 2 3 1 2 2 3 4 1 4 3 2 3 3 4 5 9 9 10 10 9 9 8 8 4 3 1 2 8 4 5 11 11 10 8 4 4 6 7 5 5 12
7 3 2 2 2 1 4 2 3 2 3 2 3 2 2 2 1 2 2 2 2 1 1 2 3 2 2 1 4 8 10 10 9 10 10 6 2 5 3 4 4 6 7 7 6 5 7 1 3 3 5 3 7 10
3 2 2 1 1 3 2 2 2 2 3 2 3 3 1 2 3 3 2 2 2 1 1 1 5 3 3 4 3 6 10 10 11 8 8 7 9 4 5 11 13 8 5 2 2 4 4 3 2 2 4 4 7 8
3 1 1 3 2 2 3 2 1 2 2 1 2 3 1 2 3 3 3 2 3 4 4 1 4 3 0 3 6 11 6 6 9 3 9 16 6 3 9 4 3 3 2 5 5 4 4 3 3 4 3 7 8 7
2 2 3 1 2 3 1 2 0 1 2 2 2 2 2 3 4 3 2 2 3 4 5 4 1 2 3 12 10 13 14 9 4 5 13 11 4 3 4 5 8 12 12 10 8 4 3 3 5 4 5 4 6 9
2 2 3 2 3 2 4 3 4 3 3 2 1 2 2 3 3 3 4 3 4 7 7 5 4 7 7 13 21 21 18 21 14 10 13 10 6 5 5 7 10 10 9 9 6 5 4 3 4 4 5 6 7 9
3 2 3 2 4 4 4 3 2 3 3 3 2 3 2 3 4 1 2 5 5 6 6 4 6 6 3 0 4 3 5 8 8 7 9 9 4 3 1 4 7 9 9 9 8 8 8 8 7 6 7 7 8 9
3 2 3 5 4 4 4 4 3 2 1 3 3 3 4 3 3 2 2 3 7 9 9 6 3 6 9 1 7 9 7 7 6 6 8 5 7 6 7 6 7 7 8 10 11 11 10 9 8 7 7 7 6 7
3 4 3 3 3 3 3 3 4 6 7 4 1 2 7 14 19 18 17 14 13 13 12 2 4 8 9 5 5 4 1 3 6 2 5 4 6 5 7 7 7 6 5 5 6 6 4 3 4 5 8 9 10 8
1 4 3 4 3 4 5 4 7 2 3 2 3 4 4 4 7 5 4 7 10 11 10 5 8 5 6 5 2 5 6 3 2 1 0 1 4 5 6 6 5 6 6 6 6 8 7 6 5 5 7 8 8 9
4 6 3 3 3 3 3 3 2 2 1 2 2 2 3 3 2 1 4 3 6 10 9 7 4 2 1 1 2 4 4 3 3 3 3 4 6 5 4 4 4 5 4 4 4 4 4 5 5 6 7 7 8 8
4 3 4 5 4 3 2 2 2 2 2 2 3 2 2 2 3 5 5 3 2 5 6 4 4 4 5 4 5 6 7 8 11 12 10 9 8 5 2 3 4 3 3 4 5 4 3 5 6 5 5 7 8 8
Wind_Direction
343 344 346 346 347 347 346 347 347 347 348 348 350 351 352 352 355 2 316 356 350 306 293 284 296 269 201 245 259 93 205 200 216 235 249 178 251 177 207 57 212 232 257 200 240 260 238 62 245 273 2 323 329 320
341 343 346 346 345 344 344 343 342 343 345 345 346 347 349 346 344 359 306 331 319 251 331 300 276 269 289 4 317 186 359 64 20 245 229 167 186 183 199 181 171 213 338 7 295 50 81 356 312 318 314 304 306 307
338 342 344 343 342 342 342 342 342 342 343 344 344 343 340 336 334 339 310 319 300 266 227 235 191 173 233 249 251 282 142 46 135 343 44 66 187 266 192 163 155 137 138 258 284 115 333 317 292 301 335 319 309 303
335 339 341 340 340 340 341 342 342 341 344 342 340 337 331 326 326 325 293 316 313 295 286 107 98 134 190 172 201 286 19 134 103 249 232 226 182 264 150 91 270 44 185 25 270 266 328 94 6 332 318 312 304 302
334 336 339 340 343 342 341 339 338 342 341 340 337 332 327 320 315 303 261 259 330 324 333 25 145 92 249 204 201 208 204 217 199 185 201 130 100 186 99 206 168 188 51 303 355 358 324 310 320 316 310 310 308 306
330 334 337 341 341 341 339 337 339 341 338 338 337 336 331 323 290 194 199 218 268 335 281 220 74 119 113 152 160 167 141 130 274 281 93 105 65 283 205 179 99 111 100 359 321 322 315 304 299 314 323 319 312 312
330 333 335 339 337 337 336 338 340 339 338 338 338 339 349 33 124 319 32 349 300 308 270 265 163 114 144 155 158 169 204 314 304 82 219 132 157 260 279 259 130 126 6 325 315 319 311 332 326 322 315 324 327 319
327 331 334 337 337 338 338 340 340 340 337 337 336 345 37 103 110 174 18 340 352 280 274 284 134 171 188 188 166 244 198 204 168 356 179 213 157 237 238 117 121 54 327 311 338 324 310 314 326 341 331 336 328 321
325 330 334 336 336 342 344 345 344 343 339 337 333 346 259 244 257 30 311 312 297 304 338 304 285 121 225 128 94 155 254 219 78 234 176 240 145 226 120 138 93 17 350 323 320 307 335 338 346 335 344 336 340 337
321 330 335 334 343 345 347 348 347 346 342 349 360 246 195 57 313 322 160 208 177 166 249 272 271 176 300 203 118 203 240 248 225 88 175 235 168 122 130 102 36 356 343 318 302 324 340 341 340 347 349 353 351 336
324 328 331 338 338 340 345 348 348 353 7 0 340 338 326 311 242 225 250 257 90 119 30 337 337 340 32 349 51 5 37 342 252 120 253 188 182 153 138 89 33 348 325 317 296 305 317 335 340 347 353 356 357 358
319 323 330 331 333 335 340 344 346 356 341 305 292 296 295 247 240 263 84 92 61 182 127 324 334 331 345 324 322 128 284 223 261 127 238 220 114 136 138 85 23 346 332 320 323 316 318 335 352 352 349 351 355 3
320 322 325 326 328 330 335 337 338 333 334 266 259 259 330 195 40 23 359 47 239 354 18 26 1 335 272 294 301 244 243 252 136 224 231 69 135 140 133 50 355 333 335 325 325 324 309 340 349 357 355 351 347 351
318 319 319 323 325 331 331 331 334 337 301 289 315 321 273 166 53 18 61 323 344 301 219 175 169 290 260 253 251 238 110 246 241 243 161 128 123 142 63 354 308 333 330 325 313 299 332 320 318 349 2 357 353 355
318 318 321 329 330 330 329 327 327 321 285 287 282 258 193 16 119 31 204 192 170 268 243 201 235 230 211 241 221 232 208 233 249 25 104 107 104 323 328 324 323 321 322 314 314 303 305 312 284 339 359 1 359 355
323 329 302 328 329 332 330 331 333 282 246 255 240 252 241 243 140 97 52 24 8 342 247 258 291 274 220 292 238 227 268 330 56 94 57 78 24 357 330 312 309 310 306 305 308 294 298 331 317 320 332 3 1 5
325 277 311 326 330 337 336 334 286 249 285 250 220 250 290 282 305 341 331 9 332 271 23 283 258 17 286 235 252 13 345 333 352 333 3 16 318 315 318 307 303 305 306 309 311 297 305 322 332 316 307 2 5 13
280 309 320 329 337 338 311 310 283 275 257 246 274 27 284 290 288 282 350 330 305 33 305 289 319 244 251 254 12 43 326 328 316 315 316 3 315 306 299 294 302 299 300 306 313 320 305 296 309 285 322 345 4 20
300 312 324 335 337 320 313 273 300 288 291 318 290 267 290 292 282 271 270 261 284 304 286 262 256 249 266 339 339 314 329 323 318 311 305 268 307 302 309 304 310 320 314 317 334 304 296 305 286 20 42 4 37 30
309 315 324 328 331 279 270 213 279 277 284 16 279 268 299 294 310 283 261 236 252 249 235 234 286 304 329 347 331 313 308 308 292 283 293 306 314 312 323 346 359 346 325 327 310 299 348 44 93 82 78 55 40 29
328 299 328 342 276 273 285 296 252 311 314 283 316 312 300 273 252 245 222 212 218 221 232 220 310 18 12 352 331 319 300 290 281 275 294 306 278 322 312 302 6 9 4 334 319 4 358 29 88 107 85 67 55 32
303 326 302 306 283 245 262 225 300 324 268 298 291 289 262 249 313 353 339 235 356 31 17 21 18 359 2 20 11 357 337 321 296 290 285 274 284 311 337 357 346 17 24 318 325 304 296 309 72 89 94 91 79 54
326 321 270 273 268 208 269 267 264 238 272 313 303 247 225 269 348 308 254 52 73 6 46 65 50 22 319 6 358 355 348 341 347 353 340 315 342 94 26 358 349 349 304 293 288 312 324 245 112 124 115 58 45 35
320 277 281 273 255 273 304 240 246 269 297 290 305 297 286 313 316 246 268 74 38 335 308 43 41 5 315 296 337 324 335 332 329 338 357 83 93 91 333 332 318 319 328 293 117 252 244 105 158 99 63 66 51 39
276 273 194 282 235 258 249 253 247 252 271 294 264 260 303 303 277 273 286 88 48 27 17 129 122 94 178 304 327 326 313 315 300 316 127 131 151 288 270 251 110 58 39 144 152 146 145 134 89 91 88 47 24 22
271 171 187 219 201 245 289 296 247 288 286 272 265 338 284 297 264 249 109 79 62 34 39 47 0 326 357 3 348 328 318 329 206 156 161 186 220 340 12 75 79 59 35 32 35 64 99 100 78 91 103 92 48 352
272 210 220 216 282 274 261 229 253 259 262 263 291 304 279 249 247 114 115 92 69 44 26 18 334 311 347 355 351 6 22 49 66 128 174 210 263 296 349 21 45 34 17 14 28 42 70 82 86 66 47 41 23 9
263 260 240 183 237 240 274 299 252 231 237 224 232 227 257 281 18 97 140 138 40 1 352 38 40 18 17 126 325 332 311 320 313 294 249 255 280 316 57 60 54 41 43 41 39 60 67 71 69 55 42 25 16 14
237 213 252 253 237 236 236 233 258 272 291 270 271 302 294 311 347 320 172 253 293 301 306 325 2 332 322 240 214 230 251 301 336 9 71 93 93 79 84 68 61 60 69 70 71 70 61 53 41 29 26 24 24 20
238 200 241 241 236 240 217 224 269 286 290 329 324 235 263 272 275 278 271 260 262 263 263 311 266 302 310 5 128 146 58 215 247 307 2 41 28 49 81 74 65 62 60 71 81 76 43 46 69 55 42 38 24 17
205 201 242 246 261 260 255 260 263 295 264 239 251 251 267 290 298 284 271 261 244 240 229 207 243 253 15 308 34 64 65 56 128 145 291 12 25 86 82 75 64 50 52 58 53 46 40 52 52 42 36 20 22 6
201 221 242 258 273 268 257 251 266 259 209 232 246 223 247 232 276 249 342 269 204 207 211 232 249 51 98 176 47 73 84 62 81 71 82 106 108 103 94 70 48 48 45 39 26 30 26 1 13 2 356 8 359 357
200 226 240 269 258 248 178 235 233 257 219 222 230 223 212 282 17 34 64 56 82 140 148 132 108 105 104 98 93 88 78 87 93 92 99 103 103 90 42 24 18 3 345 337 341 337 323 331 331 341 346 349 348 349
Height
876 871 866 861 856 851 847 842 837 832 827 824 819 815 811 808 804 802 799 797 796 782 771 772 771 768 766 764 761 766 768 763 763 769 764 764 768 769 774 774 778 778 779 775 782 790 791 782 781 793 787 782 782 784
874 869 864 860 855 850 845 840 835 830 826 822 819 815 811 808 805 802 799 798 796 793 776 777 775 774 774 772 767 767 766 765 761 762 767 766 773 774 769 778 780 786 778 778 783 781 783 785 787 784 784 786 785 786
871 866 862 857 852 847 842 837 833 829 825 821 817 814 810 807 804 802 801 798 795 787 773 772 767 772 773 773 773 767 766 768 768 768 763 766 777 768 775 773 778 783 781 782 789 782 781 783 782 783 784 785 784 783
868 864 860 855 849 844 840 835 831 826 822 819 815 811 808 804 801 800 801 799 796 790 776 766 770 770 772 772 773 772 770 771 769 767 766 766 770 774 773 772 773 778 783 785 784 778 783 780 783 784 785 784 781 779
866 861 857 852 847 842 838 833 828 824 820 816 811 807 803 801 799 798 799 798 797 796 780 766 768 771 770 771 772 772 770 768 766 768 766 769 770 773 774 774 775 778 781 784 784 788 791 788 786 786 784 781 778 774
863 859 854 849 845 840 836 831 826 821 817 812 807 802 799 797 796 798 794 798 797 796 787 768 768 769 770 771 771 771 771 770 767 763 766 770 774 775 775 775 783 783 786 788 789 789 789 786 783 780 779 778 774 771
860 856 851 847 843 838 834 828 823 818 813 808 803 800 798 796 797 795 795 799 796 796 787 772 765 769 770 770 770 771 773 770 769 768 769 770 774 777 774 777 784 787 789 789 789 789 787 783 782 780 777 773 771 771
857 853 849 844 840 836 831 826 821 815 809 804 801 799 799 798 797 796 798 796 795 795 790 779 769 767 769 765 767 772 769 771 773 770 773 773 779 777 779 783 786 788 789 787 788 788 785 781 778 778 776 771 771 765
854 850 846 842 838 834 829 824 818 812 806 801 799 798 798 798 794 797 796 795 795 798 788 784 773 770 768 767 769 772 772 772 776 771 773 778 777 781 780 785 787 788 790 789 787 784 781 780 779 776 772 767 763 762
850 847 844 840 836 832 828 823 817 810 804 801 799 797 789 797 796 796 796 793 791 793 791 784 781 776 773 767 772 774 773 773 777 777 778 777 777 782 785 787 788 788 789 788 785 783 781 780 777 774 770 767 765 762
847 844 841 838 835 831 827 823 817 810 806 804 801 795 799 796 795 790 786 784 785 789 792 789 786 779 778 776 776 778 778 778 779 780 780 779 780 782 784 786 787 788 787 785 783 782 780 779 777 774 771 767 763 759
844 841 839 836 833 830 827 823 818 815 814 812 809 805 801 793 786 787 784 786 787 793 794 795 790 788 783 783 779 781 779 777 779 774 780 775 779 780 782 785 786 787 785 783 781 781 779 777 776 774 771 768 763 759
841 839 837 834 831 828 825 822 818 814 811 811 807 799 794 789 796 792 795 789 791 790 789 791 790 787 781 780 779 779 782 778 774 779 774 776 778 780 782 783 784 784 783 781 779 779 778 776 775 774 771 768 764 759
838 836 834 832 829 827 823 819 816 813 811 804 800 809 790 787 785 784 788 792 794 792 791 791 795 790 784 783 779 781 778 778 779 776 778 775 780 779 781 782 782 781 780 779 777 778 777 777 774 771 770 767 763 760
836 833 831 829 827 824 820 816 813 813 810 802 800 806 787 784 786 788 788 787 784 783 782 786 785 780 772 775 773 775 779 779 772 778 777 775 779 781 781 780 779 780 779 777 775 774 774 775 773 768 768 765 762 760
833 831 830 828 824 821 816 813 812 812 808 803 800 792 786 784 781 781 782 784 783 778 778 776 776 777 776 775 778 777 777 778 780 776 770 774 778 779 780 780 780 779 777 775 774 773 772 772 772 769 767 764 761 759
832 832 829 826 822 818 815 814 812 809 804 801 792 792 791 789 787 785 784 782 784 779 785 780 783 781 775 777 779 776 780 778 770 769 770 777 779 779 779 778 777 776 774 772 773 772 771 771 770 768 766 764 760 759
832 831 827 824 820 816 815 814 810 806 801 795 793 790 791 790 788 785 786 786 784 783 784 783 775 778 779 777 774 771 769 768 769 771 772 775 777 777 775 774 774 773 771 771 772 771 771 769 767 766 765 763 758 758
831 828 826 823 821 820 816 812 812 803 797 796 794 793 792 789 788 788 787 788 787 786 785 784 784 779 778 772 773 771 771 771 770 769 770 776 776 775 774 773 772 772 771 770 770 769 767 765 764 764 763 760 759 760
828 826 824 823 821 819 814 810 812 805 797 795 796 791 790 788 786 785 783 783 783 783 784 782 780 781 775 775 777 775 774 773 773 769 769 773 774 772 773 774 774 774 772 771 768 765 762 763 763 763 763 763 760 760
827 826 823 822 821 819 815 809 805 803 800 796 792 792 787 785 782 779 777 780 780 781 778 776 776 779 781 781 779 778 775 773 772 768 768 768 771 770 772 774 773 773 771 768 767 764 763 757 760 761 762 763 763 762
827 825 823 822 820 817 814 810 807 805 803 793 792 789 785 786 784 777 779 776 773 780 779 782 783 783 781 782 781 779 777 775 774 772 771 770 770 770 771 773 774 774 772 770 769 766 765 762 760 761 762 764 763 765
825 825 823 821 818 819 815 810 805 800 797 791 789 787 786 785 779 780 775 779 782 782 782 783 783 783 783 783 782 780 778 775 774 773 771 770 769 771 773 773 773 774 773 771 768 767 767 765 764 763 764 763 763 764
825 824 820 818 816 814 809 804 802 804 800 796 789 788 785 783 778 776 774 778 784 783 783 783 784 784 783 782 781 780 777 777 775 774 772 771 772 773 773 771 772 771 769 768 768 768 767 765 765 763 763 764 765 766
828 824 822 829 812 813 804 801 798 802 798 795 794 788 784 780 780 776 775 781 784 784 783 783 783 785 784 782 780 778 776 776 775 776 775 775 775 776 773 770 770 769 766 764 764 764 765 765 765 766 766 766 768 768
829 816 823 808 806 805 803 803 801 801 798 795 789 787 783 783 782 777 779 783 785 784 784 785 785 783 784 783 781 777 774 773 773 774 776 777 777 775 770 765 765 768 768 766 765 764 764 765 766 767 769 770 771 768
823 810 810 811 808 806 803 799 799 798 799 795 791 791 789 786 779 781 781 783 783 785 786 787 787 786 786 785 780 777 773 771 775 778 778 778 777 776 774 771 770 773 772 770 768 767 767 767 767 768 769 771 771 771
811 810 809 806 805 802 801 800 800 798 795 789 790 790 788 782 782 785 783 786 787 786 785 785 786 786 786 787 784 782 781 781 780 779 778 778 776 775 774 775 775 775 775 773 771 770 770 771 772 772 773 773 773 773
810 807 808 805 803 799 796 794 791 788 787 788 791 791 786 780 780 782 784 786 786 786 783 782 785 784 782 781 781 782 782 781 781 777 772 775 776 777 776 776 776 776 777 778 777 777 777 776 776 776 776 775 774 773
806 806 803 800 798 793 790 790 789 788 787 789 791 792 790 785 783 782 781 782 783 782 781 782 784 783 780 777 777 779 781 781 780 782 779 779 778 776 777 778 779 779 779 778 778 779 779 778 777 776 776 775 775 773
802 803 801 796 791 788 786 785 787 790 790 791 790 790 788 785 780 777 777 777 777 777 777 781 780 778 780 780 777 777 782 782 781 782 782 780 779 780 780 781 781 781 781 781 780 780 780 779 779 778 778 778 777 775
798 798 794 791 788 784 786 783 783 786 787 789 786 786 783 779 778 776 776 776 775 775 776 777 776 777 780 781 781 782 782 783 782 782 782 782 782 783 783 783 783 783 783 782 782 782 782 781 780 780 778 777 777 776
795 797 797 790 784 781 780 783 781 780 781 782 782 779 781 779 774 773 776 776 775 773 774 777 780 781 782 783 783 784 784 784 784 784 784 784 785 785 784 784 785 785 784 784 783 782 782 782 781 780 779 778 777 775